Change the Weather History Date:

Sunday, May 11, 2014

  Actual Average Record
Temperature  
Mean Temperature 80 °F -  
Max Temperature 93 °F 79 °F 96 °F (2000)
Min Temperature 69 °F 54 °F 39 °F (2008)
Cooling Degree Days 15    
Growing Degree Days 30 (Base 50)    
Moisture  
Dew Point 62 °F    
Average Humidity 57    
Maximum Humidity 84    
Minimum Humidity 31    
Precipitation  
Precipitation 0.00 in - - ()
Sea Level Pressure  
Sea Level Pressure 29.58 in    
Wind  
Wind Speed 26 mph (South)    
Max Wind Speed 34 mph    
Max Gust Speed 50 mph    
Visibility 10 miles    
Events      
Averages and records for this station are not official NWS values.
T = Trace of Precipitation, MM = Missing Value Source: NWS Daily Summary

Daily Weather History Graph

Daily Weather History Graph

Search for Another Location

Airport or City:

Trip Planner

Search our weather history database for the weather conditions in past years. The results will help you decide how hot, cold, wet, or windy it might be!

Date:

Astronomy

May. 11, 2014 Rise Set
Actual Time 6:35 AM CDT 8:29 PM CDT
Civil Twilight 6:08 AM CDT 8:57 PM CDT
Nautical Twilight 5:34 AM CDT 9:31 PM CDT
Astronomical Twilight 4:58 AM CDT 10:07 PM CDT
Moon 5:34 PM CDT (5/11) 4:33 AM CDT (5/11)
Length of Visible Light 14h 49m
Length of Day
13h 53m
Waxing Gibbous, 89% of the Moon is Illuminated
May 11
Waxing Gibbous
May 14
Full
May 21
Last Quarter
May 28
New
Jun 5
First Quarter

Hourly Weather History & Observations

Time (CDT) Temp. Heat Index Dew Point Humidity Pressure Visibility Wind Dir Wind Speed Gust Speed Precip Events Conditions
12:53 AM 73.9 °F - 64.9 °F 73% 29.60 in 10.0 mi South 24.2 mph 33.4 mph N/A   Clear
1:53 AM 73.9 °F - 64.0 °F 71% 29.61 in 10.0 mi South 26.5 mph 34.5 mph N/A   Clear
2:53 AM 73.0 °F - 64.0 °F 73% 29.60 in 10.0 mi South 21.9 mph 28.8 mph N/A   Clear
3:53 AM 72.0 °F - 64.0 °F 76% 29.60 in 10.0 mi South 21.9 mph - N/A   Clear
4:53 AM 71.1 °F - 64.0 °F 78% 29.61 in 10.0 mi South 21.9 mph 27.6 mph N/A   Clear
5:53 AM 70.0 °F - 64.0 °F 81% 29.62 in 10.0 mi South 21.9 mph 27.6 mph N/A   Clear
6:53 AM 69.1 °F - 64.0 °F 84% 29.64 in 10.0 mi South 20.7 mph 28.8 mph N/A   Clear
7:53 AM 70.0 °F - 64.0 °F 81% 29.65 in 10.0 mi South 23.0 mph 31.1 mph N/A   Clear
8:53 AM 73.9 °F - 63.0 °F 68% 29.66 in 10.0 mi South 27.6 mph 38.0 mph N/A   Clear
9:53 AM 75.9 °F - 63.0 °F 64% 29.66 in 10.0 mi South 29.9 mph 38.0 mph N/A   Clear
10:53 AM 78.1 °F - 62.1 °F 58% 29.66 in 10.0 mi South 29.9 mph 42.6 mph N/A   Scattered Clouds
11:53 AM 82.0 °F 83.0 °F 62.1 °F 51% 29.65 in 10.0 mi South 28.8 mph 40.3 mph N/A   Partly Cloudy
12:53 PM 84.2 °F 84.4 °F 60.8 °F 45% 29.69 in 10.0 mi South 31.1 mph 38.0 mph N/A   Partly Cloudy
1:53 PM 88.0 °F 87.1 °F 59.0 °F 37% 29.59 in 10.0 mi South 24.2 mph 44.9 mph N/A   Clear
2:53 PM 90.0 °F 89.1 °F 59.0 °F 35% 29.55 in 10.0 mi South 32.2 mph 43.7 mph N/A   Clear
3:53 PM 91.9 °F 90.8 °F 57.9 °F 32% 29.53 in 10.0 mi South 31.1 mph 41.4 mph N/A   Clear
4:53 PM 91.9 °F 90.6 °F 57.0 °F 31% 29.50 in 10.0 mi South 32.2 mph 46.0 mph N/A   Clear
5:53 PM 91.9 °F 90.6 °F 57.0 °F 31% 29.49 in 10.0 mi South 29.9 mph 41.4 mph N/A   Clear
6:53 PM 90.0 °F 88.8 °F 57.9 °F 34% 29.48 in 10.0 mi SSE 31.1 mph 42.6 mph N/A   Clear
7:53 PM 86.0 °F 85.7 °F 60.1 °F 41% 29.49 in 10.0 mi SSE 29.9 mph 38.0 mph N/A   Clear
8:53 PM 82.0 °F 83.1 °F 63.0 °F 52% 29.51 in 10.0 mi SSE 27.6 mph 36.8 mph N/A   Clear
9:53 PM 80.1 °F 81.2 °F 62.1 °F 54% 29.52 in 10.0 mi SSE 27.6 mph 40.3 mph N/A   Clear
10:53 PM 79.0 °F - 64.0 °F 60% 29.55 in 10.0 mi SSE 24.2 mph 39.1 mph N/A   Clear
11:53 PM 77.0 °F - 64.9 °F 66% 29.50 in 10.0 mi South 34.5 mph 49.5 mph N/A   Clear